EW3533 Weather Reports


Display with metric or nautical units.
time (UTC)temp
F
wind
direction
speed
MPH
gust
MPH
rain 1hr
in
rain 24hr
in
rain mn
in
humidity
%
barometer
mb
20260508113048 39 208 1.0 3.0 0.00 0.00 0.00 89 1010.9
20260508111545 37 209 1.0 3.0 0.00 0.00 0.00 89 1010.9
20260508110041 36 209 2.0 4.0 0.00 0.00 0.00 87 1011.0
20260508104542 36 240 0.0 0.0 0.00 0.00 0.00 85 1010.9
20260508103052 37 240 0.0 2.0 0.00 0.00 0.00 82 1011.0
20260508101533 39 240 0.0 3.0 0.00 0.00 0.00 82 1010.9
20260508100032 39 240 2.0 4.0 0.00 0.00 0.00 83 1011.0
20260508094530 39 242 1.0 4.0 0.00 0.00 0.00 84 1011.0
20260508093037 39 238 1.0 2.0 0.00 0.00 0.00 83 1011.0
20260508091532 40 238 2.0 4.0 0.00 0.00 0.00 81 1011.1
20260508090023 40 238 3.0 5.0 0.00 0.00 0.00 81 1011.1
20260508084520 41 239 3.0 5.0 0.00 0.00 0.00 80 1011.1
20260508083016 41 240 2.0 3.0 0.00 0.00 0.00 80 1011.1
20260508081516 41 240 1.0 3.0 0.00 0.00 0.00 79 1011.1
20260508080013 42 240 2.0 4.0 0.00 0.00 0.00 79 1011.3
20260508074519 42 240 2.0 4.0 0.00 0.00 0.00 79 1011.2
20260508073012 42 240 2.0 3.0 0.00 0.00 0.00 79 1011.3
20260508071514 43 240 2.0 4.0 0.00 0.00 0.00 78 1011.3
20260508070005 44 240 2.0 5.0 0.00 0.00 0.00 77 1011.4
20260508064502 44 240 2.0 5.0 0.00 0.00 0.00 75 1011.5
20260508063107 45 236 3.0 8.0 0.00 0.00 0.00 74 1011.4
20260508061557 45 233 3.0 5.0 0.00 0.00 0.00 74 1011.3
20260508060055 45 233 2.0 5.0 0.00 0.00 0.00 70 1011.2
20260508054554 46 232 3.0 6.0 0.00 0.00 0.00 70 1011.2
20260508053104 45 233 2.0 6.0 0.00 0.00 0.00 69 1011.4
20260508051552 45 232 3.0 6.0 0.00 0.00 0.00 70 1011.5
20260508050051 45 248 2.0 5.0 0.00 0.00 0.00 70 1011.5
20260508044547 46 248 3.0 8.0 0.00 0.00 0.00 68 1011.4
20260508043055 46 246 1.0 5.0 0.00 0.00 0.00 68 1011.8
20260508041549 47 226 2.0 5.0 0.00 0.00 0.00 66 1011.4
20260508040040 47 225 3.0 8.0 0.00 0.00 0.00 68 1011.5
20260508034539 46 230 5.0 8.0 0.00 0.00 0.00 68 1011.5
20260508033038 47 223 4.0 7.0 0.00 0.00 0.00 68 1011.4
20260508031537 47 223 5.0 9.0 0.00 0.00 0.00 67 1011.5
20260508030042 47 243 5.0 9.0 0.00 0.00 0.00 66 1011.6
20260508024536 47 241 4.0 7.0 0.00 0.00 0.00 66 1011.5
20260508023035 47 265 2.0 6.0 0.00 0.00 0.00 66 1011.3
20260508021540 47 238 1.0 5.0 0.00 0.00 0.00 65 1011.2
20260508020044 47 240 1.0 7.0 0.00 0.00 0.00 64 1011.3
20260508014534 47 273 8.0 20.0 0.00 0.00 0.00 64 1011.4
20260508013037 47 242 2.0 5.0 0.00 0.00 0.00 66 1011.2
20260508011532 47 242 2.0 8.0 0.00 0.00 0.00 64 1011.0
20260508010034 47 266 4.0 15.0 0.00 0.00 0.00 62 1010.9
20260508004532 48 248 6.0 11.0 0.00 0.00 0.00 56 1011.3
20260508003030 49 288 4.0 15.0 0.00 0.00 0.00 53 1010.9
20260508001554 49 270 3.0 8.0 0.00 0.00 0.00 52 1010.7
20260508000028 50 279 7.0 15.0 0.00 0.00 0.00 47 1010.8
20260507234531 51 257 5.0 13.0 0.00 0.00 0.00 46 1010.6
20260507233026 51 234 4.0 15.0 0.00 0.00 0.00 46 1010.5
20260507231533 51 241 5.0 17.0 0.00 0.00 0.00 45 1010.7
20260507230027 52 248 7.0 12.0 0.00 0.00 0.00 45 1010.6
20260507224533 52 252 8.0 16.0 0.00 0.00 0.00 43 1010.7
20260507223024 52 265 7.0 16.0 0.00 0.00 0.00 45 1010.6
20260507221523 52 294 7.0 11.0 0.00 0.00 0.00 44 1010.6
20260507220036 52 236 4.0 11.0 0.00 0.00 0.00 44 1010.6
20260507214530 52 290 4.0 13.0 0.00 0.00 0.00 43 1010.5
20260507213022 52 264 4.0 11.0 0.00 0.00 0.00 44 1010.5
20260507211520 52 231 7.0 15.0 0.00 0.00 0.00 42 1010.4
20260507210019 52 276 8.0 14.0 0.00 0.00 0.00 42 1010.6
20260507204518 53 273 6.0 15.0 0.00 0.00 0.00 42 1010.6
20260507203016 53 240 6.0 15.0 0.00 0.00 0.00 44 1010.7
20260507201514 53 271 5.0 18.0 0.00 0.00 0.00 46 1010.9
20260507200016 51 234 7.0 14.0 0.00 0.00 0.00 47 1011.1
20260507194508 50 282 3.0 10.0 0.00 0.00 0.00 49 1011.3
20260507193007 50 281 4.0 12.0 0.00 0.00 0.00 50 1011.4
20260507191506 50 269 5.0 13.0 0.00 0.00 0.00 50 1011.5
20260507190005 51 271 6.0 12.0 0.00 0.00 0.00 49 1011.5
20260507184505 49 266 4.0 13.0 0.00 0.00 0.00 52 1011.7
20260507183004 49 298 3.0 12.0 0.00 0.00 0.00 50 1011.6
20260507181501 49 231 8.0 17.0 0.00 0.00 0.00 50 1011.7
20260507174609 49 248 9.0 17.0 0.00 0.00 0.00 51 1011.9
20260507173058 49 229 6.0 15.0 0.00 0.00 0.00 50 1012.1
20260507171603 49 275 5.0 14.0 0.00 0.00 0.00 53 1012.2
20260507170057 50 287 5.0 13.0 0.00 0.00 0.00 50 1012.3
20260507164553 49 246 9.0 16.0 0.00 0.00 0.00 53 1012.3
20260507163055 49 275 3.0 14.0 0.00 0.00 0.00 58 1012.4
20260507161652 48 306 4.0 12.0 0.00 0.00 0.00 60 1012.5
20260507160054 48 244 5.0 11.0 0.00 0.00 0.00 59 1012.5
20260507154551 48 283 3.0 9.0 0.00 0.00 0.00 61 1012.5
20260507153057 49 246 3.0 8.0 0.00 0.00 0.00 56 1012.5
20260507151549 49 301 2.0 8.0 0.00 0.00 0.00 57 1012.7
20260507150049 49 239 4.0 13.0 0.00 0.00 0.00 56 1012.6
20260507144547 49 220 3.0 10.0 0.00 0.00 0.00 59 1012.5
20260507143046 48 247 2.0 5.0 0.00 0.00 0.00 59 1012.6
20260507141542 47 178 2.0 5.0 0.00 0.00 0.00 59 1012.7
20260507140044 47 355 0.0 4.0 0.00 0.00 0.00 58 1012.8
20260507134542 46 32 1.0 4.0 0.00 0.00 0.00 60 1012.7
20260507133036 46 32 2.0 5.0 0.00 0.00 0.00 64 1012.7
20260507131551 46 59 2.0 5.0 0.00 0.00 0.00 66 1012.8
20260507130034 45 78 1.0 4.0 0.00 0.00 0.00 72 1012.8
20260507124534 44 141 0.0 3.0 0.00 0.00 0.00 75 1012.7
20260507123035 43 141 0.0 2.0 0.00 0.00 0.00 80 1012.7
20260507121532 41 140 0.0 2.0 0.00 0.00 0.00 81 1012.7
20260507120039 40 141 2.0 4.0 0.00 0.00 0.00 83 1012.6
20260507114532 39 269 0.0 2.0 0.00 0.00 0.00 85 1012.5